Regional Weather Roundup
Issued by NWS

Home | Current Version | Previous Version | Graphics & Text | Print | Product List | Glossary On
Versions: 1 2 3 4 5 6 7 8 9 10 11 12 13 14 15 16 17 18 19 20 21 22 23 24 25 26 27 28 29 30 31 32 33 34 35 36 37 38 39 40 41 42 43 44 45 46 47 48 49 50
000
ASUS43 KDTX 270210
RWRMI
MICHIGAN HOURLY REGIONAL WEATHER ROUNDUP
NATIONAL WEATHER SERVICE DETROIT/PONTIAC MI
ISSUED BY NATIONAL WEATHER SERVICE GRAND RAPIDS MI
1000 PM EDT FRI MAY 26 2017

NOTE: "FAIR" INDICATES FEW OR NO CLOUDS BELOW 12,000 FEET WITH NO
SIGNIFICANT WEATHER AND/OR OBSTRUCTION TO VISIBILITY.

MIZ047>049-052>055-059>063-066>070-074>076-081>083-270300-
SOUTHEAST LOWER MICHIGAN

CITY           SKY/WX    TMP DP  RH WIND       PRES   REMARKS
ADRIAN         MOCLDY    62  58  86 N5        29.88R
ALMA           CLOUDY    60  57  88 CALM      29.87S
ANN ARBOR      MOCLDY    60  58  92 CALM      29.88R
BAD AXE        CLEAR     56  55  96 CALM      29.89S
DETROIT CITY   MOCLDY    61  54  77 CALM      29.88R
DETROIT        LGT RAIN  64  57  78 S5        29.89R
FLINT          CLOUDY    60  53  77 CALM      29.88R
GROSSE ILE     CLOUDY    60  57  88 CALM      29.88R
HILLSDALE      LGT RAIN  61  57  88 E7        29.86F
HOWELL         CLOUDY    61  54  76 CALM      29.88R

CITY           SKY/WX    TMP DP  RH WIND       PRES   REMARKS
JACKSON        CLOUDY    62  57  83 E5        29.87S
LANSING        CLOUDY    65  52  62 SE3       29.87S
MASON          CLOUDY    62  57  83 CALM      29.88S
MONROE         MOCLDY    60  56  86 CALM      29.87R
MT. CLEMENS    MOCLDY    57  57  99 CALM      29.86S
PONTIAC        MOCLDY    61  54  77 CALM      29.88R
PORT HOPE        N/A     54  52  93 SE5       29.88R
PORT HURON     PTCLDY    54  52  94 CALM      29.89R FOG
TRI CITIES     PTCLDY    63  55  75 S6        29.87R
YPSILANTI      CLOUDY    65  59  81 CALM      29.89R
$$
MIZ043>046-050>051-056>058-064>065-071>073-077>080-270300-
SOUTHWEST LOWER MICHIGAN

CITY           SKY/WX    TMP DP  RH WIND       PRES   REMARKS
BATTLE CREEK   LGT RAIN  64  57  78 E6        29.87S
BENTON HARBOR  RAIN      57  55  93 CALM      29.87R FOG
BIG RAPIDS     CLOUDY    63  51  65 N5        29.86S
COLDWATER      LGT RAIN  62  60  93 E3        29.84S
HOLLAND        LGT RAIN  58  54  86 CALM      29.87R
GRAND RAPIDS   LGT RAIN  64  57  78 NW5       29.86S
KALAMAZOO      LGT RAIN  63  57  81 CALM      29.86R
MARSHALL       CLOUDY    63  58  84 NE3       29.86S
MOUNT PLEASANT PTCLDY    64  52  65 S3        29.86R
MUSKEGON       LGT RAIN  57  55  93 CALM      29.86S
STURGIS        LGT RAIN  59  58  96 CALM      29.85R
$$
MIZ016>042-270300-
NORTHERN LOWER MICHIGAN

CITY           SKY/WX    TMP DP  RH WIND       PRES   REMARKS
ALPENA         CLOUDY    56  52  86 S3        29.88R
BEAVER ISLAND  CLOUDY    55  50  82 CALM      29.87R
BELLAIRE       CLEAR     55  51  86 CALM      29.87S
CADILLAC       PTCLDY    58  53  81 CALM      29.86S
CHARLEVOIX     PTCLDY    54  50  88 CALM      29.90R
GAYLORD        MOCLDY    61  52  72 CALM      29.88R
HOUGHTON LAKE  CLOUDY    60  55  83 CALM      29.86S
MANISTEE       MOCLDY    50  48  93 CALM      29.86S
OSCODA         CLEAR     56  53  88 S9        29.88R
PELLSTON       MOCLDY    56  50  80 CALM      29.87R
TRAVERSE CITY  MOCLDY    54  49  83 CALM      29.84F
LUDINGTON      CLOUDY    52  51  97 CALM      29.85S
$$
MIZ007>008-015-270300-
EASTERN UPPER MICHIGAN

CITY           SKY/WX    TMP DP  RH WIND       PRES   REMARKS
KINROSS        CLEAR     61  52  72 SW6       29.87R
MACKINAC ISLAN CLEAR     55  50  82 W6        29.86S
NEWBERRY       CLOUDY    58  54  86 SW6       29.85R
S. S. MARIE    CLEAR     60  50  69 S3        29.85R
$$
MIZ004>006-011>014-085-270300-
CENTRAL UPPER MICHIGAN

CITY           SKY/WX    TMP DP  RH WIND       PRES   REMARKS
MANISTIQUE     CLOUDY    54  50  87 CALM      29.84S
ESCANABA       CLOUDY    57  52  83 CALM      29.84S
MENOMINEE      CLOUDY    61  51  70 S6        29.85S
SAWYER-GWINN   CLOUDY    61  52  72 S6        29.86R
$$
MIZ001>003-009>011-084-270300-
WESTERN UPPER MICHIGAN

CITY           SKY/WX    TMP DP  RH WIND       PRES   REMARKS
IRON MOUNTAIN  CLOUDY    60  55  83 CALM      29.84R
HOUGHTON       LGT RAIN  54  49  83 E9        29.79S
COPPER HARBOR    N/A     57  47  69 SW10G17   29.78S
IRONWOOD       PTCLDY    65  55  70 SE6       29.77S
$$

ABBREVIATIONS USED IN REMARKS
   TC - TEMPERATURE IN CELSIUS
  WCI - WIND CHILL INDEX
   HX - HEAT INDEX
  VSB - VISIBILITY




USA.gov is the U.S. government's official web portal to all federal, state and local government web resources and services.